This is the latest recevied weather packets stored in our database for station/object VE9LJW. If no packets are shown the sender has not sent any weather packets the latest 10 day(s).
| Time | Temp. | Humidity | Pressure | Rain* | Wind** | Luminosity | Snow |
|---|---|---|---|---|---|---|---|
| 1778009086 | 23.89° C | 55% | 1002.1 hPa | 0 mm | - | 515 W/m² | - |
| 1778008783 | 23.89° C | 54% | 1001.9 hPa | 0 mm | - | 552 W/m² | - |
| 1778008482 | 23.89° C | 54% | 1002 hPa | 0 mm | - | 487 W/m² | - |
| 1778008178 | 24.44° C | 53% | 1002.1 hPa | 0 mm | - | 380 W/m² | - |
| 1778007873 | 25° C | 52% | 1002 hPa | 0 mm | - | 558 W/m² | - |
| 1778007569 | 24.44° C | 52% | 1002.4 hPa | 0 mm | - | 568 W/m² | - |
| 1778007267 | 25.56° C | 50% | 1002.1 hPa | 0 mm | - | 481 W/m² | - |
| 1778006963 | 25.56° C | 49% | 1002.2 hPa | 0 mm | - | 585 W/m² | - |
| 1778006660 | 25° C | 49% | 1002 hPa | 0 mm | - | 551 W/m² | - |
| 1778006357 | 25.56° C | 49% | 1002.1 hPa | 0 mm | - | 636 W/m² | - |
| 1778006053 | 25.56° C | 48% | 1002.4 hPa | 0 mm | - | 613 W/m² | - |
| 1778005750 | 25° C | 50% | 1002.3 hPa | 0 mm | - | 615 W/m² | - |
| 1778005447 | 25° C | 50% | 1002.3 hPa | 0 mm | - | 620 W/m² | - |
| 1778005143 | 25.56° C | 48% | 1002.5 hPa | 0 mm | - | 657 W/m² | - |
| 1778004841 | 25.56° C | 48% | 1002.9 hPa | 0 mm | - | 607 W/m² | - |
| 1778004537 | 25.56° C | 47% | 1003 hPa | 0 mm | - | 576 W/m² | - |
| 1778004234 | 25.56° C | 48% | 1002.9 hPa | 0 mm | - | 642 W/m² | - |
| 1778003931 | 25.56° C | 47% | 1003.3 hPa | 0 mm | - | 535 W/m² | - |
| 1778003627 | 25.56° C | 46% | 1003.3 hPa | 0 mm | - | 670 W/m² | - |
| 1778003323 | 25.56° C | 47% | 1003.3 hPa | 0 mm | - | 648 W/m² | - |
| 1778003021 | 25.56° C | 46% | 1003.4 hPa | 0 mm | - | 656 W/m² | - |
| 1778002717 | 25° C | 47% | 1003.6 hPa | 0 mm | - | 681 W/m² | - |
| 1778002414 | 25.56° C | 46% | 1003.7 hPa | 0 mm | - | 668 W/m² | - |
| 1778002111 | 25.56° C | 47% | 1003.5 hPa | 0 mm | - | 661 W/m² | - |
| 1778001808 | 25.56° C | 46% | 1003.6 hPa | 0 mm | - | 673 W/m² | - |
* Rain latest hour (hover to see other rain measurements)
** Current wind speed in m/s (hover to see current wind gust speed)